| time (UTC) | temp F | wind direction | speed MPH | gust MPH | rain 1hr in | rain 24hr in | rain mn in | humidity % | barometer mb |
| 20260507155419 | 48 | 293 | 7.0 | 15.0 | 0.00 | 0.00 | 0.00 | 49 | 1016.0 |
| 20260507154920 | 48 | 331 | 6.0 | 14.0 | 0.00 | 0.00 | 0.00 | 51 | 1016.0 |
| 20260507154419 | 48 | 292 | 7.0 | 13.0 | 0.00 | 0.00 | 0.00 | 50 | 1016.0 |
| 20260507153920 | 48 | 276 | 8.0 | 14.0 | 0.00 | 0.00 | 0.00 | 50 | 1015.8 |
| 20260507153420 | 47 | 292 | 6.0 | 17.0 | 0.00 | 0.00 | 0.00 | 50 | 1015.9 |
| 20260507152920 | 48 | 323 | 6.0 | 10.0 | 0.00 | 0.00 | 0.00 | 50 | 1015.7 |
| 20260507152420 | 48 | 320 | 7.0 | 16.0 | 0.00 | 0.00 | 0.00 | 49 | 1015.7 |
| 20260507151920 | 48 | 355 | 8.0 | 13.0 | 0.00 | 0.00 | 0.00 | 51 | 1015.6 |
| 20260507151420 | 48 | 294 | 8.0 | 16.0 | 0.00 | 0.00 | 0.00 | 49 | 1015.6 |
| 20260507150920 | 48 | 271 | 7.0 | 12.0 | 0.00 | 0.00 | 0.00 | 49 | 1015.5 |
| 20260507150420 | 48 | 286 | 7.0 | 14.0 | 0.00 | 0.00 | 0.00 | 51 | 1015.6 |
| 20260507145920 | 47 | 317 | 7.0 | 13.0 | 0.00 | 0.00 | 0.00 | 49 | 1015.4 |
| 20260507145420 | 47 | 10 | 8.0 | 13.0 | 0.00 | 0.00 | 0.00 | 50 | 1015.5 |
| 20260507144920 | 47 | 309 | 8.0 | 15.0 | 0.00 | 0.00 | 0.00 | 51 | 1015.6 |
| 20260507144420 | 47 | 286 | 7.0 | 16.0 | 0.00 | 0.00 | 0.00 | 50 | 1015.5 |
| 20260507143920 | 47 | 5 | 8.0 | 13.0 | 0.00 | 0.00 | 0.00 | 52 | 1015.5 |
| 20260507143420 | 47 | 286 | 8.0 | 15.0 | 0.00 | 0.00 | 0.00 | 51 | 1015.5 |
| 20260507142920 | 46 | 348 | 6.0 | 14.0 | 0.00 | 0.00 | 0.00 | 53 | 1015.5 |
| 20260507142420 | 46 | 288 | 7.0 | 12.0 | 0.00 | 0.00 | 0.00 | 55 | 1015.6 |
| 20260507141920 | 46 | 313 | 8.0 | 15.0 | 0.00 | 0.00 | 0.00 | 54 | 1015.6 |
| 20260507141420 | 46 | 240 | 6.0 | 17.0 | 0.00 | 0.00 | 0.00 | 55 | 1015.6 |
| 20260507140920 | 46 | 306 | 7.0 | 10.0 | 0.00 | 0.00 | 0.00 | 57 | 1015.6 |
| 20260507140420 | 46 | 275 | 7.0 | 15.0 | 0.00 | 0.00 | 0.00 | 55 | 1015.7 |
| 20260507135920 | 46 | 315 | 7.0 | 11.0 | 0.00 | 0.00 | 0.00 | 58 | 1015.7 |
| 20260507135420 | 45 | 276 | 8.0 | 17.0 | 0.00 | 0.00 | 0.00 | 55 | 1015.8 |
| 20260507134920 | 46 | 284 | 7.0 | 18.0 | 0.00 | 0.00 | 0.00 | 55 | 1015.7 |
| 20260507134420 | 46 | 269 | 6.0 | 12.0 | 0.00 | 0.00 | 0.00 | 56 | 1015.7 |
| 20260507133920 | 45 | 269 | 4.0 | 12.0 | 0.00 | 0.00 | 0.00 | 57 | 1015.7 |
| 20260507133420 | 45 | 272 | 5.0 | 10.0 | 0.00 | 0.00 | 0.00 | 59 | 1015.7 |
| 20260507132920 | 45 | 331 | 5.0 | 12.0 | 0.00 | 0.00 | 0.00 | 57 | 1015.8 |
| 20260507132420 | 45 | 329 | 4.0 | 9.0 | 0.00 | 0.00 | 0.00 | 61 | 1015.7 |
| 20260507131920 | 44 | 295 | 4.0 | 11.0 | 0.00 | 0.00 | 0.00 | 60 | 1015.6 |
| 20260507131420 | 44 | 313 | 5.0 | 10.0 | 0.00 | 0.00 | 0.00 | 62 | 1015.5 |
| 20260507130920 | 44 | 257 | 4.0 | 10.0 | 0.00 | 0.00 | 0.00 | 63 | 1015.5 |
| 20260507130420 | 44 | 311 | 4.0 | 7.0 | 0.00 | 0.00 | 0.00 | 64 | 1015.4 |
| 20260507125920 | 43 | 325 | 6.0 | 12.0 | 0.00 | 0.00 | 0.00 | 64 | 1015.4 |
| 20260507125420 | 43 | 284 | 5.0 | 10.0 | 0.00 | 0.00 | 0.00 | 64 | 1015.4 |
| 20260507124920 | 43 | 295 | 4.0 | 10.0 | 0.00 | 0.00 | 0.00 | 66 | 1015.4 |
| 20260507124420 | 43 | 296 | 4.0 | 10.0 | 0.00 | 0.00 | 0.00 | 67 | 1015.4 |
| 20260507123920 | 42 | 303 | 4.0 | 9.0 | 0.00 | 0.00 | 0.00 | 69 | 1015.5 |
| 20260507123420 | 42 | 250 | 3.0 | 11.0 | 0.00 | 0.00 | 0.00 | 70 | 1015.5 |
| 20260507122920 | 42 | 257 | 3.0 | 7.0 | 0.00 | 0.00 | 0.00 | 71 | 1015.4 |
| 20260507122420 | 42 | 282 | 1.0 | 7.0 | 0.00 | 0.00 | 0.00 | 73 | 1015.5 |
| 20260507121920 | 41 | 298 | 1.0 | 4.0 | 0.00 | 0.00 | 0.00 | 73 | 1015.4 |
| 20260507121420 | 41 | 284 | 1.0 | 5.0 | 0.00 | 0.00 | 0.00 | 74 | 1015.4 |
| 20260507120920 | 41 | 288 | 1.0 | 5.0 | 0.00 | 0.00 | 0.00 | 77 | 1015.5 |
| 20260507120420 | 40 | 296 | 1.0 | 6.0 | 0.00 | 0.00 | 0.00 | 79 | 1015.4 |
| 20260507115920 | 39 | 248 | 1.0 | 7.0 | 0.00 | 0.00 | 0.00 | 81 | 1015.4 |
| 20260507115420 | 38 | 244 | 0.0 | 4.0 | 0.00 | 0.00 | 0.00 | 85 | 1015.4 |
| 20260507114920 | 37 | 273 | 0.0 | 2.0 | 0.00 | 0.00 | 0.00 | 88 | 1015.4 |
| 20260507114420 | 36 | 274 | 0.0 | 2.0 | 0.00 | 0.00 | 0.00 | 91 | 1015.5 |
| 20260507113920 | 35 | 248 | 0.0 | 0.0 | 0.00 | 0.00 | 0.00 | 91 | 1015.4 |
| 20260507113420 | 35 | 248 | 0.0 | 0.0 | 0.00 | 0.00 | 0.00 | 91 | 1015.3 |
| 20260507112920 | 34 | 248 | 0.0 | 0.0 | 0.00 | 0.00 | 0.00 | 91 | 1015.2 |
| 20260507112420 | 34 | 248 | 0.0 | 0.0 | 0.00 | 0.00 | 0.00 | 91 | 1015.2 |
| 20260507111920 | 33 | 248 | 0.0 | 0.0 | 0.00 | 0.00 | 0.00 | 91 | 1015.2 |
| 20260507111420 | 32 | 248 | 0.0 | 0.0 | 0.00 | 0.00 | 0.00 | 90 | 1015.0 |
| 20260507110920 | 32 | 248 | 0.0 | 0.0 | 0.00 | 0.00 | 0.00 | 90 | 1014.9 |
| 20260507110420 | 32 | 248 | 0.0 | 0.0 | 0.00 | 0.00 | 0.00 | 90 | 1014.9 |
| 20260507105920 | 32 | 248 | 0.0 | 0.0 | 0.00 | 0.00 | 0.00 | 89 | 1014.8 |
| 20260507105420 | 32 | 248 | 0.0 | 0.0 | 0.00 | 0.00 | 0.00 | 89 | 1014.8 |
| 20260507104920 | 32 | 248 | 0.0 | 0.0 | 0.00 | 0.00 | 0.00 | 89 | 1014.8 |
| 20260507104420 | 32 | 248 | 0.0 | 0.0 | 0.00 | 0.00 | 0.00 | 89 | 1014.8 |
| 20260507103920 | 32 | 248 | 0.0 | 0.0 | 0.00 | 0.00 | 0.00 | 88 | 1014.7 |
| 20260507103420 | 32 | 248 | 0.0 | 0.0 | 0.00 | 0.00 | 0.00 | 89 | 1014.7 |
| 20260507102921 | 33 | 248 | 0.0 | 0.0 | 0.00 | 0.00 | 0.00 | 88 | 1014.6 |
| 20260507102421 | 33 | 248 | 0.0 | 0.0 | 0.00 | 0.00 | 0.00 | 88 | 1014.6 |
| 20260507101921 | 33 | 248 | 0.0 | 0.0 | 0.00 | 0.00 | 0.00 | 88 | 1014.6 |
| 20260507101421 | 33 | 248 | 0.0 | 0.0 | 0.00 | 0.00 | 0.00 | 88 | 1014.7 |
| 20260507100921 | 33 | 248 | 0.0 | 0.0 | 0.00 | 0.00 | 0.00 | 87 | 1014.7 |
| 20260507100421 | 33 | 248 | 0.0 | 0.0 | 0.00 | 0.00 | 0.00 | 87 | 1014.7 |
| 20260507095921 | 33 | 248 | 0.0 | 0.0 | 0.00 | 0.00 | 0.00 | 87 | 1014.7 |
| 20260507095421 | 34 | 248 | 0.0 | 0.0 | 0.00 | 0.00 | 0.00 | 86 | 1014.6 |
| 20260507094921 | 34 | 248 | 0.0 | 0.0 | 0.00 | 0.00 | 0.00 | 86 | 1014.6 |
| 20260507094421 | 34 | 248 | 0.0 | 0.0 | 0.00 | 0.00 | 0.00 | 85 | 1014.6 |
| 20260507093921 | 34 | 248 | 0.0 | 0.0 | 0.00 | 0.00 | 0.00 | 85 | 1014.5 |
| 20260507093421 | 35 | 248 | 0.0 | 0.0 | 0.00 | 0.00 | 0.00 | 84 | 1014.5 |
| 20260507092921 | 35 | 248 | 0.0 | 0.0 | 0.00 | 0.00 | 0.00 | 84 | 1014.6 |
| 20260507092421 | 35 | 248 | 0.0 | 0.0 | 0.00 | 0.00 | 0.00 | 84 | 1014.6 |
| 20260507091921 | 35 | 248 | 0.0 | 0.0 | 0.00 | 0.00 | 0.00 | 84 | 1014.6 |
| 20260507091421 | 35 | 248 | 0.0 | 0.0 | 0.00 | 0.00 | 0.00 | 84 | 1014.7 |
| 20260507090921 | 35 | 248 | 0.0 | 0.0 | 0.00 | 0.00 | 0.00 | 84 | 1014.7 |
| 20260507090421 | 36 | 248 | 0.0 | 0.0 | 0.00 | 0.00 | 0.00 | 84 | 1014.7 |
| 20260507085921 | 36 | 248 | 0.0 | 0.0 | 0.00 | 0.00 | 0.00 | 83 | 1014.8 |
| 20260507085421 | 36 | 248 | 0.0 | 0.0 | 0.00 | 0.00 | 0.00 | 83 | 1014.7 |
| 20260507084921 | 36 | 248 | 0.0 | 0.0 | 0.00 | 0.00 | 0.00 | 81 | 1014.7 |
| 20260507084421 | 37 | 248 | 0.0 | 0.0 | 0.00 | 0.00 | 0.00 | 81 | 1014.8 |
| 20260507083921 | 37 | 248 | 0.0 | 0.0 | 0.00 | 0.00 | 0.00 | 80 | 1014.7 |
| 20260507083421 | 38 | 248 | 0.0 | 0.0 | 0.00 | 0.00 | 0.00 | 79 | 1014.8 |
| 20260507082921 | 38 | 248 | 0.0 | 0.0 | 0.00 | 0.00 | 0.00 | 77 | 1014.7 |
| 20260507082421 | 39 | 326 | 0.0 | 0.0 | 0.00 | 0.00 | 0.00 | 74 | 1014.7 |
| 20260507081921 | 40 | 326 | 0.0 | 0.0 | 0.00 | 0.00 | 0.00 | 72 | 1014.7 |
| 20260507081421 | 40 | 326 | 0.0 | 0.0 | 0.00 | 0.00 | 0.00 | 72 | 1014.7 |
| 20260507080921 | 40 | 326 | 0.0 | 0.0 | 0.00 | 0.00 | 0.00 | 72 | 1014.7 |
| 20260507080421 | 41 | 326 | 0.0 | 0.0 | 0.00 | 0.00 | 0.00 | 71 | 1014.7 |
| 20260507075921 | 41 | 326 | 0.0 | 0.0 | 0.00 | 0.00 | 0.00 | 71 | 1014.8 |
| 20260507075421 | 41 | 326 | 0.0 | 0.0 | 0.00 | 0.00 | 0.00 | 71 | 1014.8 |
| 20260507074921 | 41 | 326 | 0.0 | 0.0 | 0.00 | 0.00 | 0.00 | 71 | 1014.7 |
| 20260507074421 | 41 | 327 | 0.0 | 0.0 | 0.00 | 0.00 | 0.00 | 71 | 1014.7 |
| 20260507073921 | 42 | 326 | 0.0 | 0.0 | 0.00 | 0.00 | 0.00 | 70 | 1014.7 |
| 20260507073421 | 42 | 300 | 1.0 | 0.0 | 0.00 | 0.00 | 0.00 | 70 | 1014.7 |
| 20260507072921 | 42 | 320 | 1.0 | 4.0 | 0.00 | 0.00 | 0.00 | 70 | 1014.7 |
| 20260507072421 | 42 | 327 | 0.0 | 1.0 | 0.00 | 0.00 | 0.00 | 70 | 1014.7 |
| 20260507071921 | 42 | 318 | 0.0 | 0.0 | 0.00 | 0.00 | 0.00 | 70 | 1014.7 |
| 20260507071421 | 42 | 329 | 0.0 | 0.0 | 0.00 | 0.00 | 0.00 | 70 | 1014.6 |
| 20260507070921 | 43 | 307 | 0.0 | 0.0 | 0.00 | 0.00 | 0.00 | 70 | 1014.7 |
| 20260507070421 | 43 | 304 | 0.0 | 0.0 | 0.00 | 0.00 | 0.00 | 70 | 1014.7 |
| 20260507065921 | 43 | 316 | 1.0 | 0.0 | 0.00 | 0.00 | 0.00 | 70 | 1014.6 |
| 20260507065421 | 43 | 308 | 1.0 | 6.0 | 0.00 | 0.00 | 0.00 | 70 | 1014.6 |
| 20260507064921 | 43 | 304 | 1.0 | 2.0 | 0.00 | 0.00 | 0.00 | 70 | 1014.6 |
| 20260507064421 | 43 | 331 | 1.0 | 6.0 | 0.00 | 0.00 | 0.00 | 70 | 1014.6 |
| 20260507063921 | 43 | 317 | 0.0 | 1.0 | 0.00 | 0.00 | 0.00 | 70 | 1014.6 |
| 20260507063421 | 43 | 298 | 1.0 | 3.0 | 0.00 | 0.00 | 0.00 | 70 | 1014.7 |
| 20260507062921 | 43 | 277 | 1.0 | 5.0 | 0.00 | 0.00 | 0.00 | 71 | 1014.7 |
| 20260507062421 | 43 | 317 | 0.0 | 5.0 | 0.00 | 0.00 | 0.00 | 71 | 1014.6 |
| 20260507061921 | 43 | 308 | 1.0 | 2.0 | 0.00 | 0.00 | 0.00 | 71 | 1014.6 |
| 20260507061421 | 44 | 281 | 2.0 | 5.0 | 0.00 | 0.00 | 0.00 | 71 | 1014.6 |
| 20260507060921 | 44 | 281 | 2.0 | 10.0 | 0.00 | 0.00 | 0.00 | 70 | 1014.6 |
| 20260507060422 | 43 | 292 | 1.0 | 5.0 | 0.00 | 0.00 | 0.00 | 71 | 1014.6 |
| 20260507055921 | 43 | 308 | 1.0 | 3.0 | 0.00 | 0.00 | 0.00 | 72 | 1014.6 |
| 20260507055421 | 43 | 265 | 0.0 | 3.0 | 0.00 | 0.00 | 0.00 | 73 | 1014.6 |
| 20260507054921 | 43 | 286 | 0.0 | 3.0 | 0.00 | 0.00 | 0.00 | 73 | 1014.6 |
| 20260507054421 | 43 | 342 | 0.0 | 0.0 | 0.00 | 0.00 | 0.00 | 74 | 1014.6 |
| 20260507053921 | 43 | 342 | 0.0 | 0.0 | 0.00 | 0.00 | 0.00 | 74 | 1014.6 |
| 20260507053421 | 43 | 342 | 0.0 | 1.0 | 0.00 | 0.00 | 0.00 | 74 | 1014.7 |
| 20260507052921 | 42 | 342 | 0.0 | 1.0 | 0.00 | 0.00 | 0.00 | 74 | 1014.7 |
| 20260507052422 | 42 | 342 | 0.0 | 1.0 | 0.00 | 0.00 | 0.00 | 75 | 1014.6 |
| 20260507051922 | 42 | 342 | 0.0 | 1.0 | 0.00 | 0.00 | 0.00 | 76 | 1014.7 |
| 20260507051422 | 42 | 342 | 0.0 | 0.0 | 0.00 | 0.00 | 0.00 | 78 | 1014.7 |
| 20260507050922 | 42 | 342 | 0.0 | 0.0 | 0.00 | 0.00 | 0.00 | 78 | 1014.6 |
| 20260507050422 | 42 | 342 | 0.0 | 0.0 | 0.00 | 0.00 | 0.00 | 78 | 1014.6 |
| 20260507045922 | 42 | 342 | 0.0 | 0.0 | 0.00 | 0.00 | 0.00 | 78 | 1014.7 |
| 20260507045422 | 42 | 342 | 0.0 | 0.0 | 0.00 | 0.00 | 0.00 | 78 | 1014.6 |
| 20260507044922 | 41 | 342 | 0.0 | 0.0 | 0.00 | 0.00 | 0.00 | 79 | 1014.6 |
| 20260507044422 | 41 | 342 | 0.0 | 0.0 | 0.00 | 0.00 | 0.00 | 78 | 1014.6 |
| 20260507043922 | 41 | 342 | 0.0 | 0.0 | 0.00 | 0.00 | 0.00 | 78 | 1014.7 |
| 20260507043422 | 42 | 342 | 0.0 | 0.0 | 0.00 | 0.00 | 0.00 | 78 | 1014.6 |
| 20260507042922 | 42 | 342 | 0.0 | 0.0 | 0.00 | 0.00 | 0.00 | 78 | 1014.5 |
| 20260507042422 | 42 | 342 | 0.0 | 0.0 | 0.00 | 0.00 | 0.00 | 75 | 1014.6 |
| 20260507041922 | 42 | 342 | 0.0 | 0.0 | 0.00 | 0.00 | 0.00 | 74 | 1014.6 |
| 20260507041422 | 42 | 342 | 0.0 | 0.0 | 0.00 | 0.00 | 0.00 | 74 | 1014.5 |
| 20260507040922 | 42 | 342 | 0.0 | 0.0 | 0.00 | 0.00 | 0.00 | 73 | 1014.6 |
| 20260507040422 | 42 | 342 | 0.0 | 0.0 | 0.00 | 0.00 | 0.00 | 73 | 1014.6 |
| 20260507035922 | 42 | 342 | 0.0 | 0.0 | 0.00 | 0.00 | 0.00 | 73 | 1014.6 |
| 20260507035422 | 43 | 342 | 0.0 | 0.0 | 0.00 | 0.00 | 0.00 | 76 | 1014.6 |
| 20260507034922 | 43 | 342 | 0.0 | 0.0 | 0.00 | 0.00 | 0.00 | 74 | 1014.7 |
| 20260507034422 | 44 | 342 | 0.0 | 0.0 | 0.00 | 0.00 | 0.00 | 74 | 1014.7 |
| 20260507033922 | 44 | 342 | 0.0 | 0.0 | 0.00 | 0.00 | 0.00 | 72 | 1014.6 |
| 20260507033422 | 44 | 342 | 0.0 | 0.0 | 0.00 | 0.00 | 0.00 | 70 | 1014.6 |
| 20260507032922 | 44 | 342 | 0.0 | 0.0 | 0.00 | 0.00 | 0.00 | 70 | 1014.7 |
| 20260507032422 | 45 | 342 | 0.0 | 0.0 | 0.00 | 0.00 | 0.00 | 67 | 1014.6 |
| 20260507031922 | 45 | 342 | 0.0 | 0.0 | 0.00 | 0.00 | 0.00 | 71 | 1014.6 |
| 20260507031422 | 45 | 342 | 0.0 | 0.0 | 0.00 | 0.00 | 0.00 | 68 | 1014.6 |
| 20260507030922 | 45 | 342 | 0.0 | 0.0 | 0.00 | 0.00 | 0.00 | 67 | 1014.6 |
| 20260507030422 | 46 | 342 | 0.0 | 0.0 | 0.00 | 0.00 | 0.00 | 68 | 1014.5 |
| 20260507025922 | 46 | 342 | 0.0 | 0.0 | 0.00 | 0.00 | 0.00 | 70 | 1014.6 |
| 20260507025422 | 46 | 342 | 0.0 | 0.0 | 0.00 | 0.00 | 0.00 | 69 | 1014.7 |
| 20260507024922 | 46 | 342 | 0.0 | 0.0 | 0.00 | 0.00 | 0.00 | 68 | 1014.7 |
| 20260507024422 | 46 | 342 | 0.0 | 0.0 | 0.00 | 0.00 | 0.00 | 67 | 1014.7 |
| 20260507023922 | 46 | 342 | 0.0 | 0.0 | 0.00 | 0.00 | 0.00 | 68 | 1014.7 |
| 20260507023422 | 46 | 342 | 0.0 | 0.0 | 0.00 | 0.00 | 0.00 | 66 | 1014.7 |
| 20260507022922 | 47 | 342 | 0.0 | 0.0 | 0.00 | 0.00 | 0.00 | 65 | 1014.7 |
| 20260507022422 | 47 | 342 | 0.0 | 0.0 | 0.00 | 0.00 | 0.00 | 64 | 1014.6 |
| 20260507021922 | 47 | 342 | 0.0 | 0.0 | 0.00 | 0.00 | 0.00 | 63 | 1014.5 |
| 20260507021422 | 47 | 342 | 0.0 | 0.0 | 0.00 | 0.00 | 0.00 | 62 | 1014.5 |
| 20260507020922 | 47 | 342 | 0.0 | 0.0 | 0.00 | 0.00 | 0.00 | 64 | 1014.4 |
| 20260507020422 | 47 | 342 | 0.0 | 0.0 | 0.00 | 0.00 | 0.00 | 56 | 1014.3 |
| 20260507015922 | 47 | 342 | 0.0 | 0.0 | 0.00 | 0.00 | 0.00 | 54 | 1014.3 |
| 20260507015422 | 48 | 342 | 0.0 | 0.0 | 0.00 | 0.00 | 0.00 | 55 | 1014.2 |
| 20260507014922 | 48 | 342 | 0.0 | 0.0 | 0.00 | 0.00 | 0.00 | 54 | 1014.2 |
| 20260507014422 | 48 | 342 | 0.0 | 0.0 | 0.00 | 0.00 | 0.00 | 54 | 1014.2 |
| 20260507013922 | 48 | 342 | 0.0 | 0.0 | 0.00 | 0.00 | 0.00 | 50 | 1014.1 |
| 20260507013422 | 49 | 342 | 0.0 | 0.0 | 0.00 | 0.00 | 0.00 | 50 | 1014.1 |
| 20260507012922 | 49 | 342 | 0.0 | 0.0 | 0.00 | 0.00 | 0.00 | 49 | 1014.1 |
| 20260507012422 | 49 | 342 | 0.0 | 0.0 | 0.00 | 0.00 | 0.00 | 50 | 1014.1 |
| 20260507011922 | 49 | 342 | 0.0 | 0.0 | 0.00 | 0.00 | 0.00 | 50 | 1014.0 |
| 20260507011422 | 49 | 342 | 0.0 | 0.0 | 0.00 | 0.00 | 0.00 | 50 | 1014.1 |
| 20260507010922 | 49 | 342 | 0.0 | 0.0 | 0.00 | 0.00 | 0.00 | 49 | 1014.0 |
| 20260507010422 | 50 | 342 | 0.0 | 0.0 | 0.00 | 0.00 | 0.00 | 48 | 1014.0 |
| 20260507005922 | 50 | 342 | 0.0 | 0.0 | 0.00 | 0.00 | 0.00 | 49 | 1013.9 |
| 20260507005422 | 50 | 342 | 0.0 | 0.0 | 0.00 | 0.00 | 0.00 | 49 | 1014.0 |
| 20260507004922 | 50 | 342 | 0.0 | 0.0 | 0.00 | 0.00 | 0.00 | 49 | 1013.9 |
| 20260507004422 | 50 | 342 | 0.0 | 0.0 | 0.00 | 0.00 | 0.00 | 46 | 1013.9 |
| 20260507003922 | 51 | 342 | 0.0 | 0.0 | 0.00 | 0.00 | 0.00 | 45 | 1013.9 |
| 20260507003422 | 51 | 342 | 0.0 | 1.0 | 0.00 | 0.00 | 0.00 | 43 | 1013.9 |
| 20260507002922 | 51 | 317 | 0.0 | 0.0 | 0.00 | 0.00 | 0.00 | 44 | 1013.9 |
| 20260507002422 | 51 | 306 | 0.0 | 0.0 | 0.00 | 0.00 | 0.00 | 43 | 1013.9 |
| 20260507001922 | 51 | 306 | 0.0 | 0.0 | 0.00 | 0.00 | 0.00 | 43 | 1013.9 |
| 20260507001422 | 51 | 303 | 0.0 | 0.0 | 0.00 | 0.00 | 0.00 | 42 | 1013.7 |
| 20260507000923 | 51 | 306 | 0.0 | 0.0 | 0.00 | 0.00 | 0.00 | 42 | 1013.7 |
| 20260507000423 | 51 | 272 | 0.0 | 2.0 | 0.00 | 0.00 | 0.00 | 41 | 1013.7 |
| 20260506235923 | 51 | 275 | 0.0 | 4.0 | 0.00 | 0.00 | 0.00 | 40 | 1013.8 |
| 20260506235423 | 51 | 286 | 0.0 | 0.0 | 0.00 | 0.00 | 0.00 | 42 | 1013.8 |
| 20260506234923 | 52 | 289 | 1.0 | 5.0 | 0.00 | 0.00 | 0.00 | 40 | 1013.8 |
| 20260506234423 | 52 | 275 | 1.0 | 3.0 | 0.00 | 0.00 | 0.00 | 40 | 1013.8 |
| 20260506233923 | 52 | 282 | 3.0 | 6.0 | 0.00 | 0.00 | 0.00 | 39 | 1013.7 |
| 20260506233423 | 52 | 327 | 3.0 | 10.0 | 0.00 | 0.00 | 0.00 | 40 | 1013.7 |
| 20260506232923 | 52 | 311 | 3.0 | 10.0 | 0.00 | 0.00 | 0.00 | 39 | 1013.8 |
| 20260506232423 | 52 | 277 | 4.0 | 10.0 | 0.00 | 0.00 | 0.00 | 40 | 1013.7 |
| 20260506231923 | 52 | 294 | 4.0 | 13.0 | 0.00 | 0.00 | 0.00 | 39 | 1013.7 |
| 20260506231423 | 52 | 267 | 4.0 | 10.0 | 0.00 | 0.00 | 0.00 | 40 | 1013.8 |
| 20260506230923 | 52 | 283 | 4.0 | 12.0 | 0.00 | 0.00 | 0.00 | 39 | 1013.8 |
| 20260506230423 | 53 | 319 | 4.0 | 14.0 | 0.00 | 0.00 | 0.00 | 38 | 1013.7 |
| 20260506225923 | 53 | 331 | 5.0 | 10.0 | 0.00 | 0.00 | 0.00 | 38 | 1013.8 |
| 20260506225423 | 53 | 293 | 6.0 | 14.0 | 0.00 | 0.00 | 0.00 | 37 | 1013.8 |
| 20260506224923 | 53 | 307 | 6.0 | 11.0 | 0.00 | 0.00 | 0.00 | 40 | 1013.8 |
| 20260506224423 | 53 | 322 | 5.0 | 13.0 | 0.00 | 0.00 | 0.00 | 38 | 1013.7 |
| 20260506223923 | 54 | 321 | 5.0 | 12.0 | 0.00 | 0.00 | 0.00 | 39 | 1013.7 |
| 20260506223423 | 53 | 321 | 3.0 | 13.0 | 0.00 | 0.00 | 0.00 | 39 | 1013.7 |
| 20260506222923 | 53 | 319 | 3.0 | 9.0 | 0.00 | 0.00 | 0.00 | 39 | 1013.7 |
| 20260506222423 | 53 | 275 | 5.0 | 13.0 | 0.00 | 0.00 | 0.00 | 39 | 1013.8 |
| 20260506221923 | 53 | 317 | 5.0 | 11.0 | 0.00 | 0.00 | 0.00 | 38 | 1013.8 |
| 20260506221423 | 53 | 313 | 5.0 | 11.0 | 0.00 | 0.00 | 0.00 | 38 | 1013.7 |
| 20260506220923 | 53 | 300 | 3.0 | 14.0 | 0.00 | 0.00 | 0.00 | 38 | 1013.7 |
| 20260506220423 | 53 | 300 | 3.0 | 9.0 | 0.00 | 0.00 | 0.00 | 39 | 1013.7 |
| 20260506215923 | 53 | 270 | 4.0 | 12.0 | 0.00 | 0.00 | 0.00 | 38 | 1013.7 |
| 20260506215423 | 53 | 305 | 6.0 | 12.0 | 0.00 | 0.00 | 0.00 | 37 | 1013.7 |
| 20260506214923 | 53 | 290 | 7.0 | 16.0 | 0.00 | 0.00 | 0.00 | 39 | 1013.7 |
| 20260506214423 | 54 | 306 | 6.0 | 16.0 | 0.00 | 0.00 | 0.00 | 38 | 1013.7 |
| 20260506213923 | 54 | 286 | 5.0 | 13.0 | 0.00 | 0.00 | 0.00 | 37 | 1013.7 |
| 20260506213423 | 54 | 351 | 6.0 | 13.0 | 0.00 | 0.00 | 0.00 | 37 | 1013.7 |
| 20260506212923 | 54 | 275 | 8.0 | 13.0 | 0.00 | 0.00 | 0.00 | 38 | 1013.7 |
| 20260506212423 | 54 | 5 | 9.0 | 14.0 | 0.00 | 0.00 | 0.00 | 37 | 1013.7 |
| 20260506211923 | 54 | 312 | 7.0 | 14.0 | 0.00 | 0.00 | 0.00 | 37 | 1013.8 |
| 20260506211423 | 54 | 292 | 6.0 | 14.0 | 0.00 | 0.00 | 0.00 | 37 | 1013.7 |
| 20260506210923 | 53 | 322 | 7.0 | 13.0 | 0.00 | 0.00 | 0.00 | 37 | 1013.8 |
| 20260506210423 | 53 | 304 | 8.0 | 18.0 | 0.00 | 0.00 | 0.00 | 38 | 1013.9 |
| 20260506205923 | 53 | 252 | 8.0 | 15.0 | 0.00 | 0.00 | 0.00 | 37 | 1013.9 |
| 20260506205423 | 53 | 272 | 6.0 | 14.0 | 0.00 | 0.00 | 0.00 | 37 | 1013.9 |
| 20260506204923 | 53 | 286 | 9.0 | 15.0 | 0.00 | 0.00 | 0.00 | 38 | 1014.0 |
| 20260506204423 | 53 | 282 | 8.0 | 17.0 | 0.00 | 0.00 | 0.00 | 37 | 1014.1 |
| 20260506203923 | 53 | 304 | 5.0 | 10.0 | 0.00 | 0.00 | 0.00 | 38 | 1014.0 |
| 20260506203423 | 53 | 320 | 7.0 | 14.0 | 0.00 | 0.00 | 0.00 | 38 | 1014.0 |
| 20260506202923 | 53 | 329 | 7.0 | 17.0 | 0.00 | 0.00 | 0.00 | 39 | 1014.1 |
| 20260506202423 | 53 | 287 | 6.0 | 13.0 | 0.00 | 0.00 | 0.00 | 37 | 1014.1 |
| 20260506201923 | 53 | 298 | 7.0 | 13.0 | 0.00 | 0.00 | 0.00 | 37 | 1014.1 |
| 20260506201423 | 54 | 346 | 8.0 | 15.0 | 0.00 | 0.00 | 0.00 | 37 | 1014.2 |
| 20260506200923 | 54 | 341 | 8.0 | 15.0 | 0.00 | 0.00 | 0.00 | 38 | 1014.3 |
| 20260506200423 | 53 | 308 | 8.0 | 16.0 | 0.00 | 0.00 | 0.00 | 38 | 1014.4 |
| 20260506195923 | 54 | 305 | 6.0 | 16.0 | 0.00 | 0.00 | 0.00 | 38 | 1014.5 |
| 20260506195423 | 54 | 269 | 6.0 | 12.0 | 0.00 | 0.00 | 0.00 | 39 | 1014.3 |
| 20260506194923 | 53 | 5 | 7.0 | 12.0 | 0.00 | 0.00 | 0.00 | 39 | 1014.4 |
| 20260506194423 | 53 | 271 | 7.0 | 15.0 | 0.00 | 0.00 | 0.00 | 37 | 1014.4 |
| 20260506193923 | 54 | 288 | 8.0 | 16.0 | 0.00 | 0.00 | 0.00 | 37 | 1014.4 |
| 20260506193423 | 53 | 348 | 9.0 | 22.0 | 0.00 | 0.00 | 0.00 | 37 | 1014.4 |
| 20260506192923 | 53 | 306 | 8.0 | 17.0 | 0.00 | 0.00 | 0.00 | 37 | 1014.4 |
| 20260506192423 | 53 | 244 | 7.0 | 15.0 | 0.00 | 0.00 | 0.00 | 35 | 1014.4 |
| 20260506191924 | 53 | 47 | 6.0 | 13.0 | 0.00 | 0.00 | 0.00 | 39 | 1014.2 |
| 20260506191424 | 53 | 334 | 5.0 | 13.0 | 0.00 | 0.00 | 0.00 | 41 | 1014.2 |
| 20260506190924 | 53 | 14 | 6.0 | 11.0 | 0.00 | 0.00 | 0.00 | 39 | 1014.2 |
| 20260506190424 | 52 | 310 | 6.0 | 13.0 | 0.00 | 0.00 | 0.00 | 39 | 1014.2 |
| 20260506185924 | 52 | 303 | 6.0 | 15.0 | 0.00 | 0.00 | 0.00 | 39 | 1014.2 |
| 20260506185424 | 52 | 258 | 7.0 | 13.0 | 0.00 | 0.00 | 0.00 | 38 | 1014.4 |
| 20260506184924 | 53 | 252 | 7.0 | 15.0 | 0.00 | 0.00 | 0.00 | 38 | 1014.4 |
| 20260506184424 | 53 | 268 | 8.0 | 12.0 | 0.00 | 0.00 | 0.00 | 41 | 1014.3 |
| 20260506183924 | 53 | 277 | 9.0 | 16.0 | 0.00 | 0.00 | 0.00 | 38 | 1014.4 |
| 20260506183424 | 54 | 288 | 6.0 | 13.0 | 0.00 | 0.00 | 0.00 | 38 | 1014.3 |
| 20260506182924 | 54 | 294 | 4.0 | 11.0 | 0.00 | 0.00 | 0.00 | 38 | 1014.3 |
| 20260506182424 | 54 | 13 | 5.0 | 9.0 | 0.00 | 0.00 | 0.00 | 38 | 1014.2 |
| 20260506181924 | 54 | 294 | 6.0 | 10.0 | 0.00 | 0.00 | 0.00 | 39 | 1014.2 |
| 20260506181424 | 53 | 335 | 7.0 | 18.0 | 0.00 | 0.00 | 0.00 | 37 | 1014.2 |
| 20260506180924 | 53 | 319 | 7.0 | 15.0 | 0.00 | 0.00 | 0.00 | 40 | 1014.4 |
| 20260506180424 | 53 | 300 | 5.0 | 13.0 | 0.00 | 0.00 | 0.00 | 38 | 1014.3 |
| 20260506175924 | 53 | 321 | 6.0 | 10.0 | 0.00 | 0.00 | 0.00 | 40 | 1014.2 |
| 20260506175424 | 53 | 333 | 8.0 | 19.0 | 0.00 | 0.00 | 0.00 | 38 | 1014.2 |
| 20260506174924 | 53 | 342 | 6.0 | 14.0 | 0.00 | 0.00 | 0.00 | 40 | 1014.1 |
| 20260506174424 | 52 | 286 | 5.0 | 12.0 | 0.00 | 0.00 | 0.00 | 41 | 1014.1 |
| 20260506173924 | 52 | 333 | 6.0 | 13.0 | 0.00 | 0.00 | 0.00 | 40 | 1014.1 |
| 20260506173424 | 53 | 299 | 6.0 | 13.0 | 0.00 | 0.00 | 0.00 | 41 | 1014.2 |
| 20260506172924 | 52 | 267 | 8.0 | 13.0 | 0.00 | 0.00 | 0.00 | 40 | 1014.2 |
| 20260506172424 | 52 | 333 | 8.0 | 14.0 | 0.00 | 0.00 | 0.00 | 40 | 1014.2 |
| 20260506171924 | 52 | 355 | 7.0 | 16.0 | 0.00 | 0.00 | 0.00 | 42 | 1014.2 |
| 20260506171424 | 51 | 276 | 6.0 | 12.0 | 0.00 | 0.00 | 0.00 | 41 | 1014.3 |
| 20260506170924 | 51 | 319 | 8.0 | 12.0 | 0.00 | 0.00 | 0.00 | 43 | 1014.4 |
| 20260506170424 | 51 | 298 | 5.0 | 13.0 | 0.00 | 0.00 | 0.00 | 41 | 1014.4 |
| 20260506165924 | 51 | 355 | 3.0 | 8.0 | 0.00 | 0.00 | 0.00 | 41 | 1014.4 |
| 20260506165424 | 51 | 333 | 3.0 | 9.0 | 0.00 | 0.00 | 0.00 | 43 | 1014.4 |
| 20260506164924 | 51 | 213 | 3.0 | 10.0 | 0.00 | 0.00 | 0.00 | 40 | 1014.5 |
| 20260506164424 | 52 | 248 | 2.0 | 11.0 | 0.00 | 0.00 | 0.00 | 42 | 1014.5 |
| 20260506163924 | 52 | 324 | 2.0 | 11.0 | 0.00 | 0.00 | 0.00 | 42 | 1014.5 |
| 20260506163424 | 52 | 330 | 1.0 | 4.0 | 0.00 | 0.00 | 0.00 | 41 | 1014.5 |
| 20260506162924 | 51 | 301 | 1.0 | 2.0 | 0.00 | 0.00 | 0.00 | 42 | 1014.6 |
| 20260506162424 | 51 | 286 | 2.0 | 8.0 | 0.00 | 0.00 | 0.00 | 42 | 1014.6 |
| 20260506161924 | 51 | 306 | 5.0 | 13.0 | 0.00 | 0.00 | 0.00 | 43 | 1014.6 |
| 20260506161424 | 51 | 293 | 5.0 | 12.0 | 0.00 | 0.00 | 0.00 | 42 | 1014.7 |
| 20260506160924 | 51 | 321 | 5.0 | 12.0 | 0.00 | 0.00 | 0.00 | 43 | 1014.6 |
| 20260506160424 | 51 | 267 | 6.0 | 14.0 | 0.00 | 0.00 | 0.00 | 44 | 1014.6 |
| 20260506155924 | 50 | 325 | 5.0 | 13.0 | 0.00 | 0.00 | 0.00 | 44 | 1014.6 |